Weather in Moscow (North)

Russia / Moscow Oblast     55°55′01″N   37°34′58″E
temp.,
°C
wind,
m/s
gust,
m/s
humid.,
%
clouds,
%
prec.,
mm/h
press.,
hPa
HPBL,
m
7 may, fri
fri700:00+6sw51287100 0.0 1007697
03:00+5sw41090100 0.0 1008511
06:00+5sw31090100 0.0 1009462
09:00+9wsw57602 0.0 10101048
12:00+12wsw57396 0.1 10112257
15:00+13wsw593896 0.1 10112598
18:00+13sw474474 0.0 10111664
21:00+9s3557100 0.0 1011125
8 may, sat
sat800:00+9sse41258100 0.0 1011429
03:00+8s51264100 0.2 1011985
06:00+7sse71591100 3.1 10091190
09:00+7sse71293100 12.2 10071099
12:00+8se51296100 4.8 1005856
15:00+8sse4997100 9.3 1004601
18:00+8ese1298100 2.3 1003133
21:00+8nnw3597100 2.6 1003201
9 may, sun
sun900:00+7n51097100 0.4 1003598
03:00+6nnw61294100 0.7 1005691
06:00+3nnw81496100 1.4 1007750
09:00+4nnw81389100 4.8 1010876
12:00+6nw71182100 0.2 10141073
15:00+10nnw611515 0.3 10151867
18:00+11nnw610515 0.0 10181956
21:00+6nw38685 0.0 1021162
10 may, mon
mon1000:00+4nnw35750 0.0 1023101
03:00+3nnw38795 0.0 1026147
06:00+4n25755 0.0 1028132
09:00+10n244916 0.0 1029556
12:00+14n233634 0.0 10291279
15:00+15n33335 0.0 10281380
18:00+15nne23432 0.0 1029769
21:00+10ene22560 0.0 103028
11 may, tue
tue1100:00+8e22680 0.0 103033
03:00+7ene22723 0.0 103129
06:00+7ene247035 0.0 1031105
09:00+13e3651100 0.0 1031550
12:00+16e4640100 0.0 10301000
15:00+18e4539100 0.0 10291204
18:00+17e355180 0.0 1029577
21:00+13e3771100 0.0 1029154